Weather Roundup
Issued by NWS Chicago, IL

Home | Current Version | Previous Version | Text Only | Print | Product List | Glossary Off
Versions: 1 2 3 4 5 6 7 8 9 10 11 12 13 14 15 16 17 18 19 20 21 22 23 24 25 26 27 28 29 30 31 32 33 34 35 36 37 38 39 40 41 42 43 44 45 46 47 48 49 50

000
NZUS59 KLOT 200610
HRRLOT

CHICAGO AREA WEATHER ROUNDUP
NATIONAL WEATHER SERVICE CHICAGO/ROMEOVILLE IL
100 AM CDT SAT SEP 20 2014

NOTE: "FAIR" INDICATES FEW OR NO CLOUDS BELOW 12,000 FEET WITH NO
SIGNIFICANT WEATHER AND/OR OBSTRUCTIONS TO VISIBILITY.

* THESE STATIONS ARE NOT UNDER NWS QUALITY CONTROL. THEY ALSO MAY NOT
  REPORT WEATHER SUCH AS PRECIPITATION OR FOG.

ILZ005-006-012>014-019>023-200700-
NORTHEAST ILLINOIS

CITY           SKY/WX    TMP DP  RH WIND       PRES   REMARKS
OHARE          CLEAR     65  49  56 SW13      29.92F
6HR MIN TEMP:  65; 6HR MAX TEMP:  72;

MIDWAY         CLEAR     66  51  58 SW13      29.93F
6HR MIN TEMP:  66; 6HR MAX TEMP:  73;

AURORA         CLEAR     59  49  69 S6        29.94S
6HR MIN TEMP:  59; 6HR MAX TEMP:  67;

LANSING*       CLEAR     59  51  74 S9        29.95F
JOLIET*        CLEAR     61  50  66 S8        29.94F
WAUKEGAN       CLEAR     64  48  56 S16       29.89F
6HR MIN TEMP:  63; 6HR MAX TEMP:  67;

DUPAGE AIRPORT CLEAR     61  50  67 S12       29.92F
6HR MIN TEMP:  60; 6HR MAX TEMP:  65;

WHEELING       CLEAR     66  49  54 S14       29.93F
6HR MIN TEMP:  66; 6HR MAX TEMP:  71;

KANKAKEE*      CLEAR     58  52  80 S9        29.96F
MORRIS*        CLEAR     57  52  83 S6        29.93F
LEWIS AIRPORT* CLEAR     60  51  71 S8        29.94F
NORTHERLY IS     N/A     66  49  54 SW12        N/A
$$

WIZ051-052-058>065-066-070>072-200700-
SOUTHEAST WISCONSIN

CITY           SKY/WX    TMP DP  RH WIND       PRES   REMARKS
MILWAUKEE      PTCLDY    64  48  56 SW14      29.86F
6HR MIN TEMP:  63; 6HR MAX TEMP:  66;

KENOSHA*       CLEAR     64  49  57 SW15      29.89F
RACINE*        CLEAR     64  48  56 SW12      29.89F
BURLINGTON     CLEAR     60  49  67 SW10      29.90R
WAUKESHA       CLEAR     63  48  59 SW14G23   29.89S
WEST BEND      CLEAR     64  50  59 SW16G23   29.84F
$$

INZ001>003-010>013-019-020-200700-
NORTHWEST INDIANA

CITY           SKY/WX    TMP DP  RH WIND       PRES   REMARKS
GARY*          CLEAR     64  50  60 S7        29.94F
6HR MIN TEMP:  62; 6HR MAX TEMP:  67;

MICHIGAN CITY* NOT AVBL
RENSSELAER*    NOT AVBL
VALPARAISO     CLEAR     58  50  75 S7        29.97F
$$

LMZ740>746-200700-
SOUTHERN LAKE MICHIGAN

STATION/POSITION TIME  SKY/WX   TEMP WIND        PRES    VSBY
                                AIR  DIR/SP/G
                 (UTC)          (F)  (DEG/KT/KT) (MB)    (MI)
HARRISON CRIB    0600            66  200/ 18/ 23   N/A
BURNHAM HARBOR   0600            66  210/ 10/ 17   N/A
CALUMET HARBOR   0600            64  190/  8/ 15 1012.3F
BURNS HARBOR     NOT AVBL
MICHIGAN CITY    0600            62  150/ 13/ 17   N/A
$$

ABBREVIATIONS USED IN REMARKS
   TC - TEMPERATURE IN CELSIUS
  WCI - WIND CHILL INDEX
   HX - HEAT INDEX
  VSB - VISIBILITY
$$



USA.gov is the U.S. government's official web portal to all federal, state and local government web resources and services.